Year,Month,Day,Hour,Minute,Value (Times are PST for temperature in C)
2010,03,02,00,00,7.90
2010,03,02,00,01,7.90
2010,03,02,00,02,7.90
2010,03,02,00,03,7.90
2010,03,02,00,04,7.80
2010,03,02,00,05,7.90
2010,03,02,00,06,7.90
2010,03,02,00,07,7.90
2010,03,02,00,08,7.90
2010,03,02,00,09,7.90
2010,03,02,00,10,7.90
2010,03,02,00,11,7.90
2010,03,02,00,12,7.90
2010,03,02,00,13,7.90
2010,03,02,00,14,7.80
2010,03,02,00,15,7.80
2010,03,02,00,16,7.80
2010,03,02,00,17,7.80
2010,03,02,00,18,7.80
2010,03,02,00,19,7.80
2010,03,02,00,20,7.80
2010,03,02,00,21,7.80
2010,03,02,00,22,7.80
2010,03,02,00,23,7.80
2010,03,02,00,24,7.80
2010,03,02,00,25,7.80
2010,03,02,00,26,7.80
2010,03,02,00,27,7.80
2010,03,02,00,28,7.80
2010,03,02,00,29,7.80
2010,03,02,00,30,7.80
2010,03,02,00,31,7.80
2010,03,02,00,32,7.80
2010,03,02,00,33,7.80
2010,03,02,00,34,7.80
2010,03,02,00,35,7.80
2010,03,02,00,36,7.80
2010,03,02,00,37,7.80
2010,03,02,00,38,7.80
2010,03,02,00,39,7.70
2010,03,02,00,40,7.70
2010,03,02,00,41,7.70
2010,03,02,00,42,7.70
2010,03,02,00,43,7.70
2010,03,02,00,44,7.70
2010,03,02,00,45,7.70
2010,03,02,00,46,7.70
2010,03,02,00,47,7.70
2010,03,02,00,48,7.70
2010,03,02,00,49,7.70
2010,03,02,00,50,7.70
2010,03,02,00,51,7.70
2010,03,02,00,52,7.70
2010,03,02,00,53,7.70
2010,03,02,00,54,7.70
2010,03,02,00,55,7.70
2010,03,02,00,56,7.70
2010,03,02,00,57,7.80
2010,03,02,00,58,7.80
2010,03,02,00,59,7.80
2010,03,02,01,00,7.80
2010,03,02,01,01,7.80
2010,03,02,01,02,7.80
2010,03,02,01,03,7.80
2010,03,02,01,04,7.80
2010,03,02,01,05,7.80
2010,03,02,01,06,7.70
2010,03,02,01,07,7.70
2010,03,02,01,08,7.70
2010,03,02,01,09,7.70
2010,03,02,01,10,7.70
2010,03,02,01,11,7.70
2010,03,02,01,12,7.70
2010,03,02,01,13,7.60
2010,03,02,01,14,7.60
2010,03,02,01,15,7.60
2010,03,02,01,16,7.60
2010,03,02,01,17,7.60
2010,03,02,01,18,7.60
2010,03,02,01,19,7.60
2010,03,02,01,20,7.60
2010,03,02,01,21,7.60
2010,03,02,01,22,7.60
2010,03,02,01,23,7.70
2010,03,02,01,24,7.70
2010,03,02,01,25,7.70
2010,03,02,01,26,7.60
2010,03,02,01,27,7.60
2010,03,02,01,28,7.60
2010,03,02,01,29,7.60
2010,03,02,01,30,7.60
2010,03,02,01,31,7.60
2010,03,02,01,32,7.60
2010,03,02,01,33,7.60
2010,03,02,01,34,7.60
2010,03,02,01,35,7.60
2010,03,02,01,36,7.60
2010,03,02,01,37,7.60
2010,03,02,01,38,7.60
2010,03,02,01,39,7.60
2010,03,02,01,40,7.60
2010,03,02,01,41,7.60
2010,03,02,01,42,7.60
2010,03,02,01,43,7.70
2010,03,02,01,44,7.70
2010,03,02,01,45,7.70
2010,03,02,01,46,7.70
2010,03,02,01,47,7.70
2010,03,02,01,48,7.70
2010,03,02,01,49,7.70
2010,03,02,01,50,7.70
2010,03,02,01,51,7.70
2010,03,02,01,52,7.70
2010,03,02,01,53,7.70
2010,03,02,01,54,7.70
2010,03,02,01,55,7.70
2010,03,02,01,56,7.70
2010,03,02,01,57,7.70
2010,03,02,01,58,7.70
2010,03,02,01,59,7.70
2010,03,02,02,00,7.80
2010,03,02,02,01,7.80
2010,03,02,02,02,7.80
2010,03,02,02,03,7.80
2010,03,02,02,04,7.80
2010,03,02,02,05,7.80
2010,03,02,02,06,7.80
2010,03,02,02,07,7.80
2010,03,02,02,08,7.80
2010,03,02,02,09,7.80
2010,03,02,02,10,7.80
2010,03,02,02,11,7.80
2010,03,02,02,12,7.80
2010,03,02,02,13,7.80
2010,03,02,02,14,7.80
2010,03,02,02,15,7.80
2010,03,02,02,16,7.80
2010,03,02,02,17,7.80
2010,03,02,02,18,7.80
2010,03,02,02,19,7.80
2010,03,02,02,20,7.80
2010,03,02,02,21,7.80
2010,03,02,02,22,7.80
2010,03,02,02,23,7.80
2010,03,02,02,24,7.80
2010,03,02,02,25,7.80
2010,03,02,02,26,7.80
2010,03,02,02,27,7.80
2010,03,02,02,28,7.80
2010,03,02,02,29,7.80
2010,03,02,02,30,7.80
2010,03,02,02,31,7.80
2010,03,02,02,32,7.80
2010,03,02,02,33,7.80
2010,03,02,02,34,7.80
2010,03,02,02,35,7.80
2010,03,02,02,36,7.90
2010,03,02,02,37,7.90
2010,03,02,02,38,7.90
2010,03,02,02,39,7.90
2010,03,02,02,40,7.90
2010,03,02,02,41,7.90
2010,03,02,02,42,7.90
2010,03,02,02,43,7.90
2010,03,02,02,44,7.90
2010,03,02,02,45,7.90
2010,03,02,02,46,7.90
2010,03,02,02,47,7.90
2010,03,02,02,48,7.90
2010,03,02,02,49,7.90
2010,03,02,02,50,7.90
2010,03,02,02,51,7.90
2010,03,02,02,52,7.90
2010,03,02,02,53,7.90
2010,03,02,02,54,7.90
2010,03,02,02,55,7.90
2010,03,02,02,56,7.90
2010,03,02,02,57,7.90
2010,03,02,02,58,7.90
2010,03,02,02,59,7.90
2010,03,02,03,00,7.90
2010,03,02,03,01,7.90
2010,03,02,03,02,7.90
2010,03,02,03,03,7.90
2010,03,02,03,04,7.90
2010,03,02,03,05,7.90
2010,03,02,03,06,7.90
2010,03,02,03,07,7.90
2010,03,02,03,08,7.90
2010,03,02,03,09,7.90
2010,03,02,03,10,7.90
2010,03,02,03,11,7.90
2010,03,02,03,12,7.90
2010,03,02,03,13,7.90
2010,03,02,03,14,7.90
2010,03,02,03,15,7.90
2010,03,02,03,16,7.90
2010,03,02,03,17,7.90
2010,03,02,03,18,7.90
2010,03,02,03,19,7.90
2010,03,02,03,20,7.90
2010,03,02,03,21,7.90
2010,03,02,03,22,7.90
2010,03,02,03,23,7.90
2010,03,02,03,24,7.80
2010,03,02,03,25,7.80
2010,03,02,03,26,7.80
2010,03,02,03,27,7.80
2010,03,02,03,28,7.80
2010,03,02,03,29,7.80
2010,03,02,03,30,7.80
2010,03,02,03,31,7.80
2010,03,02,03,32,7.80
2010,03,02,03,33,7.80
2010,03,02,03,34,7.80
2010,03,02,03,35,7.80
2010,03,02,03,36,7.80
2010,03,02,03,37,7.80
2010,03,02,03,38,7.80
2010,03,02,03,39,7.80
2010,03,02,03,40,7.80
2010,03,02,03,41,7.80
2010,03,02,03,42,7.80
2010,03,02,03,43,7.80
2010,03,02,03,44,7.80
2010,03,02,03,45,7.80
2010,03,02,03,46,7.80
2010,03,02,03,47,7.80
2010,03,02,03,48,7.80
2010,03,02,03,49,7.90
2010,03,02,03,50,7.90
2010,03,02,03,51,7.90
2010,03,02,03,52,7.90
2010,03,02,03,53,7.90
2010,03,02,03,54,7.90
2010,03,02,03,55,7.90
2010,03,02,03,56,7.90
2010,03,02,03,57,7.90
2010,03,02,03,58,8.00
2010,03,02,03,59,8.00
2010,03,02,04,00,8.00
2010,03,02,04,01,8.00
2010,03,02,04,02,8.00
2010,03,02,04,03,8.00
2010,03,02,04,04,8.00
2010,03,02,04,05,8.00
2010,03,02,04,06,8.00
2010,03,02,04,07,8.00
2010,03,02,04,08,8.00
2010,03,02,04,09,8.00
2010,03,02,04,10,8.00
2010,03,02,04,11,8.00
2010,03,02,04,12,8.00
2010,03,02,04,13,8.00
2010,03,02,04,14,8.00
2010,03,02,04,15,8.00
2010,03,02,04,16,8.00
2010,03,02,04,17,8.00
2010,03,02,04,18,8.00
2010,03,02,04,19,8.00
2010,03,02,04,20,8.00
2010,03,02,04,21,8.00
2010,03,02,04,22,8.00
2010,03,02,04,23,8.00
2010,03,02,04,24,8.00
2010,03,02,04,25,8.00
2010,03,02,04,26,8.00
2010,03,02,04,27,8.00
2010,03,02,04,28,8.00
2010,03,02,04,29,8.00
2010,03,02,04,30,8.00
2010,03,02,04,31,8.00
2010,03,02,04,32,8.10
2010,03,02,04,33,8.10
2010,03,02,04,34,8.10
2010,03,02,04,35,8.10
2010,03,02,04,36,8.10
2010,03,02,04,37,8.10
2010,03,02,04,38,8.10
2010,03,02,04,39,8.10
2010,03,02,04,40,8.10
2010,03,02,04,41,8.10
2010,03,02,04,42,8.10
2010,03,02,04,43,8.10
2010,03,02,04,44,8.10
2010,03,02,04,45,8.10
2010,03,02,04,46,8.10
2010,03,02,04,47,8.10
2010,03,02,04,48,8.10
2010,03,02,04,49,8.10
2010,03,02,04,50,8.20
2010,03,02,04,51,8.20
2010,03,02,04,52,8.20
2010,03,02,04,53,8.20
2010,03,02,04,54,8.20
2010,03,02,04,55,8.20
2010,03,02,04,56,8.20
2010,03,02,04,57,8.20
2010,03,02,04,58,8.20
2010,03,02,04,59,8.30
2010,03,02,05,00,8.30
2010,03,02,05,01,8.30
2010,03,02,05,02,8.30
2010,03,02,05,03,8.40
2010,03,02,05,04,8.40
2010,03,02,05,05,8.40
2010,03,02,05,06,8.40
2010,03,02,05,07,8.40
2010,03,02,05,08,8.40
2010,03,02,05,09,8.50
2010,03,02,05,10,8.50
2010,03,02,05,11,8.50
2010,03,02,05,12,8.50
2010,03,02,05,13,8.50
2010,03,02,05,14,8.60
2010,03,02,05,15,8.60
2010,03,02,05,16,8.60
2010,03,02,05,17,8.60
2010,03,02,05,18,8.70
2010,03,02,05,19,8.70
2010,03,02,05,20,8.70
2010,03,02,05,21,8.70
2010,03,02,05,22,8.70
2010,03,02,05,23,8.70
2010,03,02,05,24,8.70
2010,03,02,05,25,8.70
2010,03,02,05,26,8.70
2010,03,02,05,27,8.70
2010,03,02,05,28,8.70
2010,03,02,05,29,8.70
2010,03,02,05,30,8.70
2010,03,02,05,31,8.70
2010,03,02,05,32,8.80
2010,03,02,05,33,8.80
2010,03,02,05,34,8.80
2010,03,02,05,35,8.80
2010,03,02,05,36,8.80
2010,03,02,05,37,8.80
2010,03,02,05,38,8.80
2010,03,02,05,39,8.80
2010,03,02,05,40,8.80
2010,03,02,05,41,8.80
2010,03,02,05,42,8.80
2010,03,02,05,43,8.80
2010,03,02,05,44,8.70
2010,03,02,05,45,8.70
2010,03,02,05,46,8.70
2010,03,02,05,47,8.70
2010,03,02,05,48,8.70
2010,03,02,05,49,8.70
2010,03,02,05,50,8.70
2010,03,02,05,51,8.70
2010,03,02,05,52,8.70
2010,03,02,05,53,8.70
2010,03,02,05,54,8.70
2010,03,02,05,55,8.70
2010,03,02,05,56,8.70
2010,03,02,05,57,8.70
2010,03,02,05,58,8.70
2010,03,02,05,59,8.70
2010,03,02,06,00,8.70
2010,03,02,06,01,8.60
2010,03,02,06,02,8.60
2010,03,02,06,03,8.60
2010,03,02,06,04,8.60
2010,03,02,06,05,8.50
2010,03,02,06,06,8.50
2010,03,02,06,07,8.50
2010,03,02,06,08,8.50
2010,03,02,06,09,8.50
2010,03,02,06,10,8.50
2010,03,02,06,11,8.40
2010,03,02,06,12,8.40
2010,03,02,06,13,8.40
2010,03,02,06,14,8.40
2010,03,02,06,15,8.40
2010,03,02,06,16,8.40
2010,03,02,06,17,8.30
2010,03,02,06,18,8.30
2010,03,02,06,19,8.30
2010,03,02,06,20,8.30
2010,03,02,06,21,8.30
2010,03,02,06,22,8.30
2010,03,02,06,23,8.30
2010,03,02,06,24,8.30
2010,03,02,06,25,8.30
2010,03,02,06,26,8.40
2010,03,02,06,27,8.40
2010,03,02,06,28,8.40
2010,03,02,06,29,8.40
2010,03,02,06,30,8.40
2010,03,02,06,31,8.40
2010,03,02,06,32,8.40
2010,03,02,06,33,8.40
2010,03,02,06,34,8.40
2010,03,02,06,35,8.40
2010,03,02,06,36,8.40
2010,03,02,06,37,8.40
2010,03,02,06,38,8.40
2010,03,02,06,39,8.40
2010,03,02,06,40,8.40
2010,03,02,06,41,8.30
2010,03,02,06,42,8.30
2010,03,02,06,43,8.30
2010,03,02,06,44,8.30
2010,03,02,06,45,8.30
2010,03,02,06,46,8.30
2010,03,02,06,47,8.30
2010,03,02,06,48,8.30
2010,03,02,06,49,8.30
2010,03,02,06,50,8.30
2010,03,02,06,51,8.30
2010,03,02,06,52,8.30
2010,03,02,06,53,8.30
2010,03,02,06,54,8.30
2010,03,02,06,55,8.30
2010,03,02,06,56,8.30
2010,03,02,06,57,8.30
2010,03,02,06,58,8.30
2010,03,02,06,59,8.30
2010,03,02,07,00,8.30
2010,03,02,07,01,8.30
2010,03,02,07,02,8.30
2010,03,02,07,03,8.30
2010,03,02,07,04,8.30
2010,03,02,07,05,8.30
2010,03,02,07,06,8.30
2010,03,02,07,07,8.30
2010,03,02,07,08,8.30
2010,03,02,07,09,8.30
2010,03,02,07,10,8.30
2010,03,02,07,11,8.30
2010,03,02,07,12,8.30
2010,03,02,07,13,8.30
2010,03,02,07,14,8.30
2010,03,02,07,15,8.30
2010,03,02,07,16,8.30
2010,03,02,07,17,8.30
2010,03,02,07,18,8.30
2010,03,02,07,19,8.30
2010,03,02,07,20,8.20
2010,03,02,07,21,8.20
2010,03,02,07,22,8.20
2010,03,02,07,23,8.20
2010,03,02,07,24,8.20
2010,03,02,07,25,8.20
2010,03,02,07,26,8.20
2010,03,02,07,27,8.20
2010,03,02,07,28,8.20
2010,03,02,07,29,8.20
2010,03,02,07,30,8.20
2010,03,02,07,31,8.20
2010,03,02,07,32,8.20
2010,03,02,07,33,8.20
2010,03,02,07,34,8.20
2010,03,02,07,35,8.20
2010,03,02,07,36,8.20
2010,03,02,07,37,8.20
2010,03,02,07,38,8.20
2010,03,02,07,39,8.20
2010,03,02,07,40,8.20
2010,03,02,07,41,8.20
2010,03,02,07,42,8.20
2010,03,02,07,43,8.20
2010,03,02,07,44,8.20
2010,03,02,07,45,8.20
2010,03,02,07,46,8.20
2010,03,02,07,47,8.20
2010,03,02,07,48,8.20
2010,03,02,07,49,8.20
2010,03,02,07,50,8.20
2010,03,02,07,51,8.20
2010,03,02,07,52,8.20
2010,03,02,07,53,8.20
2010,03,02,07,54,8.20
2010,03,02,07,55,8.20
2010,03,02,07,56,8.20
2010,03,02,07,57,8.20
2010,03,02,07,58,8.20
2010,03,02,07,59,8.20
2010,03,02,08,00,8.20
2010,03,02,08,01,8.20
2010,03,02,08,02,8.20
2010,03,02,08,03,8.20
2010,03,02,08,04,8.20
2010,03,02,08,05,8.20
2010,03,02,08,06,8.20
2010,03,02,08,07,8.20
2010,03,02,08,08,8.20
2010,03,02,08,09,8.20
2010,03,02,08,10,8.20
2010,03,02,08,11,8.20
2010,03,02,08,12,8.20
2010,03,02,08,13,8.20
2010,03,02,08,14,8.20
2010,03,02,08,15,8.20
2010,03,02,08,16,8.20
2010,03,02,08,17,8.20
2010,03,02,08,18,8.20
2010,03,02,08,19,8.20
2010,03,02,08,20,8.20
2010,03,02,08,21,8.20
2010,03,02,08,22,8.20
2010,03,02,08,23,8.20
2010,03,02,08,24,8.20
2010,03,02,08,25,8.20
2010,03,02,08,26,8.20
2010,03,02,08,27,8.20
2010,03,02,08,28,8.20
2010,03,02,08,29,8.20
2010,03,02,08,30,8.20
2010,03,02,08,31,8.20
2010,03,02,08,32,8.20
2010,03,02,08,33,8.30
2010,03,02,08,34,8.30
2010,03,02,08,35,8.30
2010,03,02,08,36,8.30
2010,03,02,08,37,8.30
2010,03,02,08,38,8.30
2010,03,02,08,39,8.30
2010,03,02,08,40,8.30
2010,03,02,08,41,8.30
2010,03,02,08,42,8.30
2010,03,02,08,43,8.30
2010,03,02,08,44,8.30
2010,03,02,08,45,8.30
2010,03,02,08,46,8.30
2010,03,02,08,47,8.30
2010,03,02,08,48,8.40
2010,03,02,08,49,8.40
2010,03,02,08,50,8.40
2010,03,02,08,51,8.40
2010,03,02,08,52,8.40
2010,03,02,08,53,8.40
2010,03,02,08,54,8.40
2010,03,02,08,55,8.40
2010,03,02,08,56,8.40
2010,03,02,08,57,8.40
2010,03,02,08,58,8.40
2010,03,02,08,59,8.40
2010,03,02,09,00,8.40
2010,03,02,09,01,8.30
2010,03,02,09,02,8.30
2010,03,02,09,03,8.30
2010,03,02,09,04,8.30
2010,03,02,09,05,8.30
2010,03,02,09,06,8.30
2010,03,02,09,07,8.30
2010,03,02,09,08,8.30
2010,03,02,09,09,8.30
2010,03,02,09,10,8.30
2010,03,02,09,11,8.30
2010,03,02,09,12,8.30
2010,03,02,09,13,8.30
2010,03,02,09,14,8.30
2010,03,02,09,15,8.30
2010,03,02,09,16,8.40
2010,03,02,09,17,8.40
2010,03,02,09,18,8.40
2010,03,02,09,19,8.40
2010,03,02,09,20,8.40
2010,03,02,09,21,8.40
2010,03,02,09,22,8.40
2010,03,02,09,23,8.40
2010,03,02,09,24,8.40
2010,03,02,09,25,8.40
2010,03,02,09,26,8.40
2010,03,02,09,27,8.40
2010,03,02,09,28,8.40
2010,03,02,09,29,8.40
2010,03,02,09,30,8.40
2010,03,02,09,31,8.40
2010,03,02,09,32,8.40
2010,03,02,09,33,8.40
2010,03,02,09,34,8.40
2010,03,02,09,35,8.40
2010,03,02,09,36,8.40
2010,03,02,09,37,8.40
2010,03,02,09,38,8.50
2010,03,02,09,39,8.50
2010,03,02,09,40,8.50
2010,03,02,09,41,8.50
2010,03,02,09,42,8.50
2010,03,02,09,43,8.50
2010,03,02,09,44,8.50
2010,03,02,09,45,8.40
2010,03,02,09,46,8.40
2010,03,02,09,47,8.40
2010,03,02,09,48,8.40
2010,03,02,09,49,8.50
2010,03,02,09,50,8.50
2010,03,02,09,51,8.50
2010,03,02,09,52,8.60
2010,03,02,09,53,8.60
2010,03,02,09,54,8.60
2010,03,02,09,55,8.60
2010,03,02,09,56,8.60
2010,03,02,09,57,8.60
2010,03,02,09,58,8.60
2010,03,02,09,59,8.60
2010,03,02,10,00,8.60
2010,03,02,10,01,8.60
2010,03,02,10,02,8.60
2010,03,02,10,03,8.60
2010,03,02,10,04,8.60
2010,03,02,10,05,8.70
2010,03,02,10,06,8.70
2010,03,02,10,07,8.70
2010,03,02,10,08,8.70
2010,03,02,10,09,8.70
2010,03,02,10,10,8.70
2010,03,02,10,11,8.70
2010,03,02,10,12,8.70
2010,03,02,10,13,8.70
2010,03,02,10,14,8.70
2010,03,02,10,15,8.70
2010,03,02,10,16,8.70
2010,03,02,10,17,8.70
2010,03,02,10,18,8.70
2010,03,02,10,19,8.70
2010,03,02,10,20,8.70
2010,03,02,10,21,8.70
2010,03,02,10,22,8.80
2010,03,02,10,23,8.80
2010,03,02,10,24,8.80
2010,03,02,10,25,8.80
2010,03,02,10,26,8.80
2010,03,02,10,27,8.80
2010,03,02,10,28,8.80
2010,03,02,10,29,8.80
2010,03,02,10,30,8.80
2010,03,02,10,31,8.90
2010,03,02,10,32,8.90
2010,03,02,10,33,8.90
2010,03,02,10,34,8.90
2010,03,02,10,35,8.90
2010,03,02,10,36,8.90
2010,03,02,10,37,8.90
2010,03,02,10,38,8.90
2010,03,02,10,39,8.90
2010,03,02,10,40,8.80
2010,03,02,10,41,8.90
2010,03,02,10,42,8.90
2010,03,02,10,43,8.90
2010,03,02,10,44,8.90
2010,03,02,10,45,8.90
2010,03,02,10,46,8.90
2010,03,02,10,47,8.90
2010,03,02,10,48,8.80
2010,03,02,10,49,8.80
2010,03,02,10,50,8.80
2010,03,02,10,51,8.80
2010,03,02,10,52,8.80
2010,03,02,10,53,8.80
2010,03,02,10,54,8.80
2010,03,02,10,55,8.80
2010,03,02,10,56,8.70
2010,03,02,10,57,8.80
2010,03,02,10,58,8.80
2010,03,02,10,59,8.70
2010,03,02,11,00,8.80
2010,03,02,11,01,8.80
2010,03,02,11,02,8.80
2010,03,02,11,03,8.80
2010,03,02,11,04,8.80
2010,03,02,11,05,8.80
2010,03,02,11,06,8.80
2010,03,02,11,07,8.80
2010,03,02,11,08,8.80
2010,03,02,11,09,8.80
2010,03,02,11,10,8.80
2010,03,02,11,11,8.80
2010,03,02,11,12,8.80
2010,03,02,11,13,8.80
2010,03,02,11,14,8.80
2010,03,02,11,15,8.80
2010,03,02,11,16,8.80
2010,03,02,11,17,8.80
2010,03,02,11,18,8.80
2010,03,02,11,19,8.80
2010,03,02,11,20,8.90
2010,03,02,11,21,8.90
2010,03,02,11,22,8.90
2010,03,02,11,23,8.90
2010,03,02,11,24,9.00
2010,03,02,11,25,9.00
2010,03,02,11,26,9.00
2010,03,02,11,27,9.00
2010,03,02,11,28,9.00
2010,03,02,11,29,9.00
2010,03,02,11,30,9.00
2010,03,02,11,31,9.00
2010,03,02,11,32,9.10
2010,03,02,11,33,9.00
2010,03,02,11,34,9.00
2010,03,02,11,35,9.10
2010,03,02,11,36,9.10
2010,03,02,11,37,9.10
2010,03,02,11,38,9.20
2010,03,02,11,39,9.20
2010,03,02,11,40,9.20
2010,03,02,11,41,9.20
2010,03,02,11,42,9.20
2010,03,02,11,43,9.20
2010,03,02,11,44,9.20
2010,03,02,11,45,9.20
2010,03,02,11,46,9.20
2010,03,02,11,47,9.20
2010,03,02,11,48,9.30
2010,03,02,11,49,9.30
2010,03,02,11,50,9.30
2010,03,02,11,51,9.30
2010,03,02,11,52,9.30
2010,03,02,11,53,9.30
2010,03,02,11,54,9.30
2010,03,02,11,55,9.40
2010,03,02,11,56,9.40
2010,03,02,11,57,9.40
2010,03,02,11,58,9.40
2010,03,02,11,59,9.40
2010,03,02,12,00,9.30
2010,03,02,12,01,9.30
2010,03,02,12,02,9.30
2010,03,02,12,03,9.30
2010,03,02,12,04,9.40
2010,03,02,12,05,9.40
2010,03,02,12,06,9.40
2010,03,02,12,07,9.40
2010,03,02,12,08,9.40
2010,03,02,12,09,9.40
2010,03,02,12,10,9.40
2010,03,02,12,11,9.30
2010,03,02,12,12,9.40
2010,03,02,12,13,9.40
2010,03,02,12,14,9.40
2010,03,02,12,15,9.40
2010,03,02,12,16,9.40
2010,03,02,12,17,9.40
2010,03,02,12,18,9.50
2010,03,02,12,19,9.60
2010,03,02,12,20,9.60
2010,03,02,12,21,9.60
2010,03,02,12,22,9.60
2010,03,02,12,23,9.60
2010,03,02,12,24,9.60
2010,03,02,12,25,9.60
2010,03,02,12,26,9.60
2010,03,02,12,27,9.60
2010,03,02,12,28,9.60
2010,03,02,12,29,9.60
2010,03,02,12,30,9.60
2010,03,02,12,31,9.60
2010,03,02,12,32,9.60
2010,03,02,12,33,9.50
2010,03,02,12,34,9.50
2010,03,02,12,35,9.50
2010,03,02,12,36,9.50
2010,03,02,12,37,9.50
2010,03,02,12,38,9.50
2010,03,02,12,39,9.50
2010,03,02,12,40,9.40
2010,03,02,12,41,9.40
2010,03,02,12,42,9.40
2010,03,02,12,43,9.40
2010,03,02,12,44,9.40
2010,03,02,12,45,9.50
2010,03,02,12,46,9.50
2010,03,02,12,47,9.50
2010,03,02,12,48,9.40
2010,03,02,12,49,9.40
2010,03,02,12,50,9.50
2010,03,02,12,51,9.50
2010,03,02,12,52,9.50
2010,03,02,12,53,9.50
2010,03,02,12,54,9.50
2010,03,02,12,55,9.50
2010,03,02,12,56,9.50
2010,03,02,12,57,9.50
2010,03,02,12,58,9.50
2010,03,02,12,59,9.50
2010,03,02,13,00,9.50
2010,03,02,13,01,9.50
2010,03,02,13,02,9.50
2010,03,02,13,03,9.50
2010,03,02,13,04,9.50
2010,03,02,13,05,9.50
2010,03,02,13,06,9.50
2010,03,02,13,07,9.50
2010,03,02,13,08,9.50
2010,03,02,13,09,9.50
2010,03,02,13,10,9.60
2010,03,02,13,11,9.60
2010,03,02,13,12,9.60
2010,03,02,13,13,9.60
2010,03,02,13,14,9.60
2010,03,02,13,15,9.60
2010,03,02,13,16,9.60
2010,03,02,13,17,9.60
2010,03,02,13,18,9.60
2010,03,02,13,19,9.60
2010,03,02,13,20,9.60
2010,03,02,13,21,9.70
2010,03,02,13,22,9.70
2010,03,02,13,23,9.70
2010,03,02,13,24,9.70
2010,03,02,13,25,9.70
2010,03,02,13,26,9.80
2010,03,02,13,27,9.90
2010,03,02,13,28,9.90
2010,03,02,13,29,9.90
2010,03,02,13,30,9.90
2010,03,02,13,31,9.90
2010,03,02,13,32,9.90
2010,03,02,13,33,9.90
2010,03,02,13,34,9.90
2010,03,02,13,35,9.90
2010,03,02,13,36,9.90
2010,03,02,13,37,9.90
2010,03,02,13,38,9.90
2010,03,02,13,39,9.90
2010,03,02,13,40,9.90
2010,03,02,13,41,9.90
2010,03,02,13,42,9.90
2010,03,02,13,43,9.90
2010,03,02,13,44,9.90
2010,03,02,13,45,9.90
2010,03,02,13,46,9.90
2010,03,02,13,47,9.90
2010,03,02,13,48,10.10
2010,03,02,13,49,10.10
2010,03,02,13,50,10.10
2010,03,02,13,51,10.10
2010,03,02,13,52,10.20
2010,03,02,13,53,10.20
2010,03,02,13,54,10.30
2010,03,02,13,55,10.30
2010,03,02,13,56,10.30
2010,03,02,13,57,10.30
2010,03,02,13,58,10.30
2010,03,02,13,59,10.30
2010,03,02,14,00,10.30
2010,03,02,14,01,10.30
2010,03,02,14,02,10.30
2010,03,02,14,03,10.30
2010,03,02,14,04,10.30
2010,03,02,14,05,10.40
2010,03,02,14,06,10.40
2010,03,02,14,07,10.40
2010,03,02,14,08,10.40
2010,03,02,14,09,10.40
2010,03,02,14,10,10.60
2010,03,02,14,11,10.60
2010,03,02,14,12,10.60
2010,03,02,14,13,10.60
2010,03,02,14,14,10.60
2010,03,02,14,15,10.60
2010,03,02,14,16,10.60
2010,03,02,14,17,10.70
2010,03,02,14,18,10.70
2010,03,02,14,19,10.80
2010,03,02,14,20,10.80
2010,03,02,14,21,10.90
2010,03,02,14,22,10.90
2010,03,02,14,23,10.90
2010,03,02,14,24,10.90
2010,03,02,14,25,11.10
2010,03,02,14,26,11.10
2010,03,02,14,27,11.10
2010,03,02,14,28,11.10
2010,03,02,14,29,11.20
2010,03,02,14,30,11.30
2010,03,02,14,31,11.40
2010,03,02,14,32,11.40
2010,03,02,14,33,11.40
2010,03,02,14,34,11.40
2010,03,02,14,35,11.50
2010,03,02,14,36,11.60
2010,03,02,14,37,11.60
2010,03,02,14,38,11.60
2010,03,02,14,39,11.60
2010,03,02,14,40,11.70
2010,03,02,14,41,11.70
2010,03,02,14,42,11.70
2010,03,02,14,43,11.70
2010,03,02,14,44,11.80
2010,03,02,14,45,11.80
2010,03,02,14,46,11.80
2010,03,02,14,47,11.80
2010,03,02,14,48,11.80
2010,03,02,14,49,11.80
2010,03,02,14,50,11.90
2010,03,02,14,51,11.90
2010,03,02,14,52,12.00
2010,03,02,14,53,12.00
2010,03,02,14,54,12.00
2010,03,02,14,55,12.10
2010,03,02,14,56,12.10
2010,03,02,14,57,12.20
2010,03,02,14,58,12.20
2010,03,02,14,59,12.30
2010,03,02,15,00,12.30
2010,03,02,15,01,12.30
2010,03,02,15,02,12.30
2010,03,02,15,03,12.30
2010,03,02,15,04,12.40
2010,03,02,15,05,12.40
2010,03,02,15,06,12.50
2010,03,02,15,07,12.50
2010,03,02,15,08,12.60
2010,03,02,15,09,12.60
2010,03,02,15,10,12.70
2010,03,02,15,11,12.70
2010,03,02,15,12,12.80
2010,03,02,15,13,12.80
2010,03,02,15,14,12.80
2010,03,02,15,15,12.80
2010,03,02,15,16,12.80
2010,03,02,15,17,12.80
2010,03,02,15,18,12.80
2010,03,02,15,19,12.80
2010,03,02,15,20,12.80
2010,03,02,15,21,12.80
2010,03,02,15,22,12.70
2010,03,02,15,23,12.60
2010,03,02,15,24,12.60
2010,03,02,15,25,12.50
2010,03,02,15,26,12.50
2010,03,02,15,27,12.40
2010,03,02,15,28,12.40
2010,03,02,15,29,12.30
2010,03,02,15,30,12.30
2010,03,02,15,31,12.20
2010,03,02,15,32,12.20
2010,03,02,15,33,12.10
2010,03,02,15,34,12.10
2010,03,02,15,35,12.00
2010,03,02,15,36,12.00
2010,03,02,15,37,12.00
2010,03,02,15,38,12.00
2010,03,02,15,39,12.00
2010,03,02,15,40,12.00
2010,03,02,15,41,12.10
2010,03,02,15,42,12.10
2010,03,02,15,43,12.10
2010,03,02,15,44,12.10
2010,03,02,15,45,12.10
2010,03,02,15,46,12.10
2010,03,02,15,47,12.10
2010,03,02,15,48,12.10
2010,03,02,15,49,12.20
2010,03,02,15,50,12.20
2010,03,02,15,51,12.20
2010,03,02,15,52,12.20
2010,03,02,15,53,12.20
2010,03,02,15,54,12.20
2010,03,02,15,55,12.20
2010,03,02,15,56,12.30
2010,03,02,15,57,12.30
2010,03,02,15,58,12.30
2010,03,02,15,59,12.30
2010,03,02,16,00,12.30
2010,03,02,16,01,12.20
2010,03,02,16,02,12.20
2010,03,02,16,03,12.20
2010,03,02,16,04,12.20
2010,03,02,16,05,12.10
2010,03,02,16,06,12.10
2010,03,02,16,07,12.10
2010,03,02,16,08,12.10
2010,03,02,16,09,12.10
2010,03,02,16,10,12.00
2010,03,02,16,11,12.00
2010,03,02,16,12,11.90
2010,03,02,16,13,11.80
2010,03,02,16,14,11.80
2010,03,02,16,15,11.80
2010,03,02,16,16,11.80
2010,03,02,16,17,11.80
2010,03,02,16,18,11.80
2010,03,02,16,19,11.80
2010,03,02,16,20,11.80
2010,03,02,16,21,11.80
2010,03,02,16,22,11.80
2010,03,02,16,23,11.80
2010,03,02,16,24,11.80
2010,03,02,16,25,11.80
2010,03,02,16,26,11.80
2010,03,02,16,27,11.80
2010,03,02,16,28,11.80
2010,03,02,16,29,11.80
2010,03,02,16,30,11.80
2010,03,02,16,31,11.80
2010,03,02,16,32,11.80
2010,03,02,16,33,11.80
2010,03,02,16,34,11.80
2010,03,02,16,35,11.70
2010,03,02,16,36,11.60
2010,03,02,16,37,11.60
2010,03,02,16,38,11.60
2010,03,02,16,39,11.60
2010,03,02,16,40,11.50
2010,03,02,16,41,11.40
2010,03,02,16,42,11.40
2010,03,02,16,43,11.40
2010,03,02,16,44,11.30
2010,03,02,16,45,11.30
2010,03,02,16,46,11.30
2010,03,02,16,47,11.30
2010,03,02,16,48,11.30
2010,03,02,16,49,11.30
2010,03,02,16,50,11.20
2010,03,02,16,51,11.20
2010,03,02,16,52,11.20
2010,03,02,16,53,11.20
2010,03,02,16,54,11.10
2010,03,02,16,55,11.10
2010,03,02,16,56,11.10
2010,03,02,16,57,11.10
2010,03,02,16,58,11.10
2010,03,02,16,59,11.10
2010,03,02,17,00,11.10
2010,03,02,17,01,11.10
2010,03,02,17,02,11.10
2010,03,02,17,03,11.10
2010,03,02,17,04,11.10
2010,03,02,17,05,11.10
2010,03,02,17,06,11.10
2010,03,02,17,07,11.10
2010,03,02,17,08,11.10
2010,03,02,17,09,11.10
2010,03,02,17,10,11.10
2010,03,02,17,11,11.10
2010,03,02,17,12,11.10
2010,03,02,17,13,11.10
2010,03,02,17,14,11.10
2010,03,02,17,15,11.20
2010,03,02,17,16,11.20
2010,03,02,17,17,11.30
2010,03,02,17,18,11.30
2010,03,02,17,19,11.30
2010,03,02,17,20,11.40
2010,03,02,17,21,11.40
2010,03,02,17,22,11.40
2010,03,02,17,23,11.40
2010,03,02,17,24,11.40
2010,03,02,17,25,11.40
2010,03,02,17,26,11.40
2010,03,02,17,27,11.40
2010,03,02,17,28,11.40
2010,03,02,17,29,11.40
2010,03,02,17,30,11.40
2010,03,02,17,31,11.40
2010,03,02,17,32,11.40
2010,03,02,17,33,11.40
2010,03,02,17,34,11.30
2010,03,02,17,35,11.30
2010,03,02,17,36,11.30
2010,03,02,17,37,11.30
2010,03,02,17,38,11.30
2010,03,02,17,39,11.30
2010,03,02,17,40,11.30
2010,03,02,17,41,11.20
2010,03,02,17,42,11.20
2010,03,02,17,43,11.20
2010,03,02,17,44,11.20
2010,03,02,17,45,11.20
2010,03,02,17,46,11.20
2010,03,02,17,47,11.20
2010,03,02,17,48,11.20
2010,03,02,17,49,11.20
2010,03,02,17,50,11.20
2010,03,02,17,51,11.20
2010,03,02,17,52,11.20
2010,03,02,17,53,11.20
2010,03,02,17,54,11.20
2010,03,02,17,55,11.20